User: anonymous   Login
Location: Huntington Beach
(33.6600°N, 117.9980°W)
Time: 22:56:26
(UTC-07:00)
Language:

SL-16 R/B - Orbit

View from above orbital plane
View from above orbital plane
View from above satellite
View from above satellite

Ground track
Ground track

The orbit data is extracted from the following two-line orbital elements,

1 28353U 04021B   14298.51794932  .00000406  00000-0  23817-3 0  8692
2 28353 071.0014 303.5016 0006577 240.7274 290.9505 14.14093335535641
Epoch (UTC): 25 October 2014 12:25:50
Eccentricity: 0.0006577
inclination: 71.0014°
perigee height: 840 km
apogee height: 850 km
right ascension of ascending node: 303.5016°
argument of perigee: 240.7274°
revolutions per day: 14.14093335
mean anomaly at epoch: 290.9505°
orbit number at epoch: 53564

The dashed part of the orbit path shows where the satellite is in the earth's shadow,  

DLR